Staples, MN

2:58 PM CDT on July 26, 2017 (GMT -0500)
Staples Municipal

Weather History for KSAZ - April, 2014

Change the Weather History Date:

Friday, April 11, 2014

  Actual Average Record
Temperature  
Mean Temperature 48 °F -  
Max Temperature 60 °F 50 °F 69 °F (1998)
Min Temperature 35 °F 29 °F 15 °F (1997)
Degree Days  
Heating Degree Days 18    
Moisture  
Dew Point 30 °F    
Average Humidity 52    
Maximum Humidity 93    
Minimum Humidity 27    
Precipitation  
Precipitation 0.00 in - - ()
Sea Level Pressure  
Sea Level Pressure 29.91 in    
Wind  
Wind Speed 7 mph (West)    
Max Wind Speed 15 mph    
Max Gust Speed 21 mph    
Visibility 10 miles    
Events      
Averages and records for this station are not official NWS values.
T = Trace of Precipitation, MM = Missing Value Source: NWS Daily Summary

Daily Weather History Graph

Daily Weather History Graph

Search for Another Location

Airport or City:

Trip Planner

Search our weather history database for the weather conditions in past years. The results will help you decide how hot, cold, wet, or windy it might be!

Date:

Astronomy

Apr. 11, 2014 Rise Set
Actual Time 6:39 AM CDT 8:01 PM CDT
Civil Twilight 6:08 AM CDT 8:32 PM CDT
Nautical Twilight 5:31 AM CDT 9:10 PM CDT
Astronomical Twilight 4:50 AM CDT 9:51 PM CDT
Moon 4:32 PM CDT (4/11) 4:47 AM CDT (4/11)
Length of Visible Light 14h 24m
Length of Day
13h 21m
Waxing Gibbous, 87% of the Moon is Illuminated
Apr 11
Waxing Gibbous
Apr 15
Full
Apr 22
Last Quarter
Apr 29
New
May 6
First Quarter

Hourly Weather History & Observations

Time (CDT) Temp. Windchill Dew Point Humidity Pressure Visibility Wind Dir Wind Speed Gust Speed Precip Events Conditions
12:13 AM 35.6 °F 32.8 °F 26.6 °F 70% 29.90 in 10.0 mi SSW 3.5 mph - N/A   Overcast
12:34 AM 37.4 °F - 26.6 °F 65% 29.89 in 10.0 mi Calm Calm - N/A   Overcast
12:53 AM 39.2 °F - 26.6 °F 61% 29.89 in 10.0 mi Calm Calm - N/A   Overcast
1:13 AM 37.4 °F 34.9 °F 26.6 °F 65% 29.90 in 10.0 mi SW 3.5 mph - N/A   Overcast
1:34 AM 41.0 °F 36.4 °F 26.6 °F 57% 29.90 in 10.0 mi SW 6.9 mph - N/A   Overcast
1:53 AM 44.6 °F 38.8 °F 26.6 °F 49% 29.90 in 10.0 mi WSW 11.5 mph 18.4 mph N/A   Overcast
2:13 AM 44.6 °F 38.8 °F 26.6 °F 49% 29.90 in 10.0 mi WSW 11.5 mph - N/A   Overcast
2:34 AM 44.6 °F 38.4 °F 28.4 °F 53% 29.90 in 10.0 mi SW 12.7 mph - N/A   Overcast
2:53 AM 44.6 °F 38.4 °F 30.2 °F 57% 29.90 in 10.0 mi SW 12.7 mph - N/A   Overcast
3:14 AM 42.8 °F 38.0 °F 32.0 °F 66% 29.91 in 10.0 mi SW 8.1 mph 16.1 mph N/A   Overcast
3:33 AM 42.8 °F 37.5 °F 33.8 °F 70% 29.91 in 10.0 mi SW 9.2 mph - N/A   Overcast
3:53 AM 42.8 °F 36.2 °F 33.8 °F 70% 29.91 in 10.0 mi SSW 12.7 mph - N/A   Overcast
4:13 AM 42.8 °F 36.2 °F 33.8 °F 70% 29.91 in 10.0 mi SW 12.7 mph 17.3 mph N/A   Overcast
4:33 AM 41.0 °F 34.3 °F 35.6 °F 81% 29.91 in 10.0 mi SW 11.5 mph - N/A   Overcast
4:54 AM 41.0 °F 35.2 °F 35.6 °F 81% 29.91 in 10.0 mi SW 9.2 mph - N/A   Overcast
5:13 AM 39.2 °F 33.0 °F 35.6 °F 87% 29.91 in 10.0 mi SW 9.2 mph - N/A   Overcast
5:33 AM 39.2 °F 35.9 °F 35.6 °F 87% 29.90 in 10.0 mi SW 4.6 mph - N/A   Overcast
5:54 AM 39.2 °F 33.6 °F 35.6 °F 87% 29.90 in 10.0 mi SSW 8.1 mph - N/A   Overcast
6:13 AM 39.2 °F 35.9 °F 35.6 °F 87% 29.91 in 10.0 mi SSW 4.6 mph - N/A   Overcast
6:33 AM 37.4 °F 33.8 °F 35.6 °F 93% 29.91 in 10.0 mi SW 4.6 mph - N/A   Mostly Cloudy
6:54 AM 37.4 °F - 33.8 °F 87% 29.91 in 10.0 mi Calm Calm - N/A   Clear
7:13 AM 37.4 °F - 33.8 °F 87% 29.90 in 10.0 mi Calm Calm - N/A   Scattered Clouds
7:33 AM 37.4 °F - 35.6 °F 93% 29.91 in 10.0 mi Calm Calm - N/A   Mostly Cloudy
7:54 AM 39.2 °F 37.0 °F 35.6 °F 87% 29.90 in 10.0 mi South 3.5 mph - N/A   Scattered Clouds
8:13 AM 41.0 °F 38.0 °F 35.6 °F 81% 29.91 in 10.0 mi SW 4.6 mph - N/A   Clear
8:33 AM 44.6 °F 43.1 °F 35.6 °F 71% 29.90 in 10.0 mi SW 3.5 mph - N/A   Clear
8:54 AM 46.4 °F 42.9 °F 35.6 °F 66% 29.91 in 10.0 mi WSW 6.9 mph - N/A   Clear
9:13 AM 48.2 °F - 35.6 °F 62% 29.90 in 10.0 mi SW 8.1 mph - N/A   Clear
9:33 AM 48.2 °F - 33.8 °F 58% 29.90 in 10.0 mi WSW 4.6 mph - N/A   Clear
9:54 AM 51.8 °F - 30.2 °F 44% 29.90 in 10.0 mi West 9.2 mph - N/A   Clear
10:13 AM 53.6 °F - 28.4 °F 38% 29.91 in 10.0 mi WNW 11.5 mph - N/A   Clear
10:33 AM 53.6 °F - 30.2 °F 41% 29.91 in 10.0 mi WNW 8.1 mph 16.1 mph N/A   Clear
10:54 AM 53.6 °F - 28.4 °F 38% 29.92 in 10.0 mi WNW 13.8 mph - N/A   Clear
11:13 AM 55.4 °F - 28.4 °F 36% 29.92 in 10.0 mi NW 11.5 mph 16.1 mph N/A   Clear
11:33 AM 55.4 °F - 26.6 °F 33% 29.93 in 10.0 mi NW 11.5 mph 19.6 mph N/A   Clear
11:54 AM 57.2 °F - 26.6 °F 31% 29.93 in 10.0 mi NW 12.7 mph 18.4 mph N/A   Clear
12:13 PM 57.2 °F - 26.6 °F 31% 29.93 in 10.0 mi WNW 13.8 mph 17.3 mph N/A   Scattered Clouds
12:33 PM 55.4 °F - 26.6 °F 33% 29.93 in 10.0 mi NNW 10.4 mph - N/A   Mostly Cloudy
12:54 PM 55.4 °F - 26.6 °F 33% 29.94 in 10.0 mi WNW 11.5 mph 17.3 mph N/A   Mostly Cloudy
1:13 PM 57.2 °F - 28.4 °F 33% 29.93 in 10.0 mi NNW 10.4 mph - N/A   Scattered Clouds
1:54 PM 57.2 °F - 26.6 °F 31% 29.93 in 10.0 mi West 12.7 mph 16.1 mph N/A   Scattered Clouds
2:13 PM 55.4 °F - 26.6 °F 33% 29.93 in 10.0 mi West 5.8 mph - N/A   Mostly Cloudy
2:33 PM 55.4 °F - 26.6 °F 33% 29.92 in 10.0 mi WSW 9.2 mph 18.4 mph N/A   Mostly Cloudy
2:54 PM 57.2 °F - 24.8 °F 29% 29.91 in 10.0 mi WNW 8.1 mph 19.6 mph N/A   Scattered Clouds
3:13 PM 60.8 °F - 26.6 °F 27% 29.91 in 10.0 mi West 10.4 mph 20.7 mph N/A   Scattered Clouds
3:33 PM 60.8 °F - 26.6 °F 27% 29.90 in 10.0 mi WNW 13.8 mph 18.4 mph N/A   Scattered Clouds
3:54 PM 60.8 °F - 26.6 °F 27% 29.90 in 10.0 mi West 15.0 mph 19.6 mph N/A   Mostly Cloudy
4:13 PM 57.2 °F - 26.6 °F 31% 29.89 in 10.0 mi WNW 9.2 mph - N/A   Scattered Clouds
4:33 PM 59.0 °F - 26.6 °F 29% 29.89 in 10.0 mi West 15.0 mph 19.6 mph N/A   Scattered Clouds
4:54 PM 57.2 °F - 26.6 °F 31% 29.89 in 10.0 mi West 9.2 mph - N/A   Clear
5:13 PM 59.0 °F - 26.6 °F 29% 29.89 in 10.0 mi West 11.5 mph 16.1 mph N/A   Clear
5:33 PM 57.2 °F - 26.6 °F 31% 29.89 in 10.0 mi West 10.4 mph - N/A   Scattered Clouds
5:54 PM 57.2 °F - 26.6 °F 31% 29.89 in 10.0 mi West 5.8 mph - N/A   Clear
6:13 PM 55.4 °F - 26.6 °F 33% 29.88 in 10.0 mi West 8.1 mph - N/A   Clear
6:33 PM 55.4 °F - 28.4 °F 36% 29.88 in 10.0 mi West 5.8 mph - N/A   Scattered Clouds
6:54 PM 55.4 °F - 30.2 °F 38% 29.89 in 10.0 mi WNW 4.6 mph - N/A   Mostly Cloudy
7:13 PM 53.6 °F - 30.2 °F 41% 29.89 in 10.0 mi WNW 3.5 mph - N/A   Overcast
7:33 PM 53.6 °F - 30.2 °F 41% 29.89 in 10.0 mi Calm Calm - N/A   Overcast
7:53 PM 53.6 °F - 30.2 °F 41% 29.89 in 10.0 mi Calm Calm - N/A   Overcast
8:13 PM 51.8 °F - 32.0 °F 47% 29.89 in 10.0 mi Calm Calm - N/A   Scattered Clouds
8:34 PM 51.8 °F - 30.2 °F 44% 29.90 in 10.0 mi NNE 6.9 mph - N/A   Mostly Cloudy
8:53 PM 51.8 °F - 28.4 °F 41% 29.91 in 10.0 mi ENE 5.8 mph - N/A   Mostly Cloudy
9:13 PM 50.0 °F - 28.4 °F 43% 29.92 in 10.0 mi NNE 4.6 mph - N/A   Scattered Clouds
9:34 PM 48.2 °F - 28.4 °F 46% 29.93 in 10.0 mi NE 4.6 mph - N/A   Mostly Cloudy
9:53 PM 48.2 °F - 28.4 °F 46% 29.93 in 10.0 mi NNE 3.5 mph - N/A   Overcast
10:13 PM 48.2 °F - 28.4 °F 46% 29.93 in 10.0 mi NE 4.6 mph - N/A   Overcast
10:34 PM 46.4 °F 44.3 °F 28.4 °F 50% 29.93 in 10.0 mi East 4.6 mph - N/A   Overcast
10:53 PM 46.4 °F 43.5 °F 28.4 °F 50% 29.93 in 10.0 mi ENE 5.8 mph - N/A   Overcast
11:13 PM 46.4 °F 45.2 °F 28.4 °F 50% 29.93 in 10.0 mi NE 3.5 mph - N/A   Overcast
11:34 PM 46.4 °F 45.2 °F 28.4 °F 50% 29.93 in 10.0 mi East 3.5 mph - N/A   Overcast
11:53 PM 46.4 °F 44.3 °F 28.4 °F 50% 29.91 in 10.0 mi East 4.6 mph - N/A   Overcast